Hourly Data Report for April 13, 2021

KUGAARUK CLIMATE
NUNAVUT
Current Station Operator: ECCC - MSC

68°32'15.060" N
89°47'47.020" W
15.80 m
2303094
71407
NBB

Download Data

Hourly Data (April 2021)
Hourly Data Report for April 13, 2021
TIME
LST
Temp Definition
°C
Dew Point Definition
°C
Rel Hum Definition
%
Precip. Amount Definition
mm

Wind Dir Definition
10's deg

Wind Spd Definition
km/h
Visibility Definition
km
Stn Press Definition
kPa
Hmdx Definition


Wind Chill Definition


Weather Definition


00:00 -25.8 -29.4 71 0.2 23 23   103.77   -39 LegendNANA
01:00 -27.1 -30.8 71 0.0 27 13   103.78   -37 LegendNANA
02:00 -27.7 -30.9 74 0.0 28 6   103.82   -34 LegendNANA
03:00 -27.9 -31.0 75 0.0 27 11   103.85   -37 LegendNANA
04:00 -27.9 -31.1 74 0.0 26 21   103.86   -41 LegendNANA
05:00 -29.9 -33.5 71 0.0 25 20   103.87   -43 LegendNANA
06:00 -26.3 -30.1 70 0.0 25 23   103.83   -39 LegendNANA
07:00 -23.8 -28.0 69 0.0 23 22   103.84   -36 LegendNANA
08:00 -22.8 -27.3 67 0.0 23 26   103.85   -35 LegendNANA
09:00 -22.2 -27.3 63 0.0 23 19   103.84   -33 LegendNANA
10:00 -21.9 -27.0 63 0.0 23 27   103.81   -34 LegendNANA
11:00 -21.2 -26.7 61 0.0 23 13   103.86   -30 LegendNANA
12:00 -20.6 -25.6 64 0.0 23 26   103.83   -33 LegendNANA
13:00 -19.9 -24.9 64 0.0 23 26   103.81   -32 LegendNANA
14:00 -18.6 -24.2 61 0.0 22 20   103.80   -29 LegendNANA
15:00 -18.8 -24.2 62 0.0 23 15   103.81   -28 LegendNANA
16:00 -18.9 -23.7 66 0.0 23 15   103.80   -28 LegendNANA
17:00 -18.9 -23.4 68 0.0 22 14   103.78   -27 LegendNANA
18:00 -21.7 -25.1 74 0.0 27 7   103.76   -28 LegendNANA
19:00 -24.0 -27.7 71 0.0 31 4   103.74   -28 LegendNANA
20:00 -26.2 -29.0 77 0.0 7 12   103.76   -36 LegendNANA
21:00 -27.1 -29.8 78 0.0 7 6   103.76   -33 LegendNANA
22:00 -29.9 -32.9 75 0.0 5 5   103.74   -36 LegendNANA
23:00 -30.7 -33.6 75 0.7 5 7   103.74   -38 LegendNANA

Notes on Data Quality.

Legend

  • E = Estimated
  • M = Missing
  • NA = Not Available*
  • [empty] = Indicates an unobserved value
Date modified: